[[{"header":{"parameterUnit":"m.s-1","parameterCategory":1,"la1":30.2991,"la2":30.254,"lo1":-89.0895,"lo2":-89.0444,"dy":0.0017,"dx":0.0017,"nx":28,"ny":28,"refTime":"2025-11-07T09:00:00:Z","depth":0,"parameterNumber":2,"parameterNumberName":"U-component_of_WINDS"},"data":[0,0,0,0,0,0,0,0,0,0,0,0,0,0,0,0,0,0,0,0,0,0,0,0,0,0,0,0,0,0,0,0,0,0,0,0,0,0,0,0,0,0,0,0,0,0,0,0,0,0,0,0,0,0,0,0,0,0,1.8777,1.8779,0,1.8895,1.8896,1.8898,1.8838,1.8835,1.8832,1.8829,1.8952,1.8958,1.8964,0,0,0,0,0,0,0,0,0,0,0,0,0,1.8504,1.8509,1.8777,1.8779,1.878,1.8895,1.8896,1.8898,1.8839,1.8835,1.8831,1.8827,1.895,1.8958,1.8965,0,0,0,0,0,0,0,0,0,0,0,0,0,1.8622,1.8511,1.8777,1.8764,1.8764,1.8894,1.8896,1.8898,1.8839,1.8835,1.883,1.8826,1.8948,1.8957,1.8966,1.9116,0,0,1.8994,1.8998,0,0,0,0,0,0,0,0,1.8616,1.8632,1.8765,1.8765,1.8766,1.8847,1.8845,1.8971,1.8841,1.8811,1.8829,1.8823,1.8921,1.8932,1.8965,1.9122,1.9127,1.8995,1.9001,1.9005,1.9007,0,0,0,0,0,0,0,1.8607,1.8627,1.8824,1.8767,1.8767,1.8754,1.8765,1.8869,1.8891,1.8813,1.8809,1.8824,1.8921,1.8956,1.8967,1.9129,1.8995,1.9003,1.9009,1.9012,1.9415,1.942,0,0,0,0,0,0,1.8599,1.862,1.882,1.8827,1.8678,1.8762,1.8775,1.8826,1.8889,1.8895,1.8828,1.882,1.8942,1.8956,1.8971,1.9152,1.9005,1.9013,1.9019,1.941,1.9417,1.9422,0,0,0,0,0,0,1.8594,1.8618,1.8815,1.8723,1.8747,1.8772,1.8829,1.883,1.8866,1.89,1.8904,1.8859,1.8939,1.8958,1.908,1.9155,1.9017,1.9026,1.9404,1.9412,1.9419,1.9514,0,0,0,0,0,0,1.8586,1.8616,1.8673,1.8725,1.8752,1.8922,1.8833,1.8836,1.8881,1.8873,1.8931,1.8936,1.8937,1.9067,1.909,1.9165,1.9033,1.9398,1.9408,1.9417,1.9504,1.9524,1.954,0,0,0,0,0,1.8577,1.8695,1.8676,1.8701,1.8823,1.8927,1.8942,1.894,1.8888,1.8945,1.8968,1.8935,1.9143,1.908,1.9105,1.9185,1.9393,1.9405,1.9416,1.9496,1.952,1.954,0,0,0,0,0,0,1.8653,1.8702,1.8681,1.882,1.8869,1.8916,1.8989,1.8965,1.9031,1.9021,1.9016,1.903,1.9156,1.9182,1.9111,1.9333,1.926,1.9277,1.9312,1.9335,1.9353,1.9344,1.9041,0,0,0,0,0,1.8685,1.8764,1.8803,1.8922,1.8948,1.8964,1.9009,1.9003,1.9054,1.9075,1.9106,1.9158,1.9235,1.9286,1.9359,1.9507,1.9519,1.9574,1.9592,1.9607,1.9622,1.9703,1.9728,1.946,1.946,1.946,0,0,1.8754,1.8791,1.8841,1.8938,1.8976,1.9058,1.8982,1.9073,1.9134,1.9089,1.9206,1.9231,1.9289,1.9424,1.9486,1.945,1.9699,1.9622,1.9633,1.9641,1.9717,1.9743,1.9765,1.9468,1.9467,1.9465,0,0,1.8922,1.8957,1.906,1.9099,1.9157,1.9167,1.9192,1.9243,1.9257,1.9374,1.9342,1.9415,1.9548,1.9591,1.963,1.9813,1.9786,1.9837,1.9933,2.0011,2.0033,2.0051,2.0118,2.0141,1.9852,1.9852,1.9852,0,1.9001,1.9123,1.9116,1.921,1.9254,1.9215,1.932,1.9358,1.9437,1.9469,1.9427,1.9593,1.9629,1.9775,1.9819,1.9852,1.9881,1.9831,2.003,2.0048,2.0066,2.0129,2.0154,1.9858,1.9857,1.9857,1.9856,0,1.9217,1.9303,1.9379,1.9455,1.9508,1.9606,1.9615,1.9669,1.9658,1.9673,1.9793,1.9835,1.9916,1.9949,1.994,2.0094,2.007,2.0029,1.9956,2.0097,2.0157,2.0181,1.9867,1.9864,1.9863,1.9861,0,0,1.9437,1.9508,1.9536,1.9571,1.9631,1.9698,1.9795,1.9873,1.9919,1.9975,2.0057,2.017,2.0132,2.0177,2.0172,2.0241,2.0384,2.0191,2.0193,2.0227,2.0557,2.0588,2.0616,2.0366,2.037,2.0374,2.0553,0,1.961,1.9779,1.9775,1.9933,2.0012,1.9976,2.0061,2.0108,2.0124,2.0194,2.0212,2.0293,2.0237,2.0264,2.033,2.0353,2.0451,2.0339,2.0443,2.0447,2.0431,2.0647,2.068,2.0847,2.0576,2.058,2.0583,0,1.9834,1.9896,2.0061,2.011,2.0143,2.0219,2.0291,2.0358,2.041,2.0417,2.0467,2.0451,2.055,2.0473,2.061,2.0534,2.0576,2.0594,2.06,2.0611,2.0524,2.0665,2.09,2.0926,2.0619,2.0616,2.0614,0,1.9978,2.0104,2.0219,2.0249,2.0309,2.0363,2.0391,2.0439,2.0486,2.0549,2.0579,2.0653,2.0694,2.0752,2.0756,2.0699,2.0895,2.0818,2.0905,2.0905,2.0948,2.0946,2.1195,2.0974,2.0973,2.0973,2.0972,0,2.0172,2.0274,2.0284,2.0355,2.0469,2.0465,2.0578,2.0601,2.0644,2.0719,2.0693,2.0764,2.0765,2.0838,2.0842,2.0956,2.0974,2.0984,2.0984,2.0987,2.0986,2.1015,2.1004,2.098,2.0978,2.0977,2.0976,0,2.0353,2.0364,2.0487,2.0533,2.0548,2.063,2.067,2.0738,2.0751,2.0847,2.0869,2.0891,2.0976,2.0985,2.1084,2.1087,2.1224,2.1212,2.1207,2.1205,2.1292,2.1284,2.157,2.1607,2.136,2.1363,2.1365,0,2.0476,2.0554,2.0609,2.0657,2.0688,2.0766,2.0814,2.0812,2.0864,2.0929,2.099,2.1071,2.1137,2.1274,2.1299,2.1375,2.1365,2.1459,2.1376,2.1376,2.1367,2.1363,2.1371,2.1476,2.1479,2.1481,2.1483,0,2.0694,2.0695,2.0765,2.0837,2.0895,2.0952,2.1005,2.1046,2.1052,2.1111,2.1197,2.1247,2.1348,2.143,2.1505,2.1534,2.151,2.1509,2.1533,2.1537,2.1532,2.1537,2.1252,2.1502,2.15,2.1499,2.1498,2.1497,2.085,2.0918,2.0968,2.1046,2.1086,2.1137,2.1203,2.1225,2.1296,2.1378,2.1372,2.1468,2.1518,2.1616,2.1651,2.1725,2.1694,2.1729,2.1738,2.1747,2.1756,2.1519,2.1739,2.1738,2.1738,2.1737,2.1737,0,2.1067,2.1097,2.117,2.1245,2.1307,2.1278,2.1336,2.139,2.1474,2.1523,2.1588,2.1687,2.1766,2.1798,2.1876,2.193,2.1921,2.195,2.1947,2.1954,2.1779,2.1751,2.1956,2.1956,2.1956,2.1956,2.1956,2.1956,2.1187,2.1301,2.1309,2.1442,2.1471,2.1564,2.1599,2.1646,2.1685,2.1797,2.1863,2.1882,2.1925,2.2005,2.2077,2.2084,2.2115,2.215,2.2152,2.1989,2.1966,2.1945,2.1919,2.2156,2.2156,2.2321,2.2322,2.2324]},{"header":{"parameterUnit":"m.s-1","parameterCategory":1,"la1":30.2991,"la2":30.254,"lo1":-89.0895,"lo2":-89.0444,"dy":0.0017,"dx":0.0017,"nx":28,"ny":28,"refTime":"2025-11-07T09:00:00:Z","depth":0,"parameterNumber":3,"parameterNumberName":"V-component_of_WINDS"},"data":[0,0,0,0,0,0,0,0,0,0,0,0,0,0,0,0,0,0,0,0,0,0,0,0,0,0,0,0,0,0,0,0,0,0,0,0,0,0,0,0,0,0,0,0,0,0,0,0,0,0,0,0,0,0,0,0,0,0,4.5509,4.5511,0,4.5623,4.5625,4.5626,4.5573,4.557,4.5567,4.5564,4.5672,4.5678,4.5683,0,0,0,0,0,0,0,0,0,0,0,0,0,4.5236,4.5242,4.5509,4.5511,4.5512,4.5623,4.5625,4.5626,4.5573,4.557,4.5566,4.5563,4.567,4.5677,4.5684,0,0,0,0,0,0,0,0,0,0,0,0,0,4.5353,4.5243,4.5509,4.5499,4.55,4.5623,4.5625,4.5627,4.5574,4.557,4.5565,4.5561,4.5668,4.5676,4.5685,4.5821,0,0,4.571,4.5713,0,0,0,0,0,0,0,0,4.5346,4.5363,4.5499,4.55,4.5501,4.558,4.5568,4.5692,4.5575,4.5545,4.5564,4.5559,4.5644,4.5654,4.5685,4.5826,4.5831,4.5711,4.5716,4.5719,4.5722,0,0,0,0,0,0,0,4.5338,4.5358,4.5554,4.5501,4.5502,4.5486,4.5498,4.5591,4.5617,4.5548,4.5544,4.5559,4.5644,4.5677,4.5687,4.5833,4.571,4.5718,4.5723,4.5726,4.6091,4.6096,0,0,0,0,0,0,4.5332,4.5351,4.555,4.5557,4.5412,4.5495,4.5508,4.5558,4.5616,4.5621,4.5562,4.5556,4.5665,4.5677,4.569,4.5855,4.5719,4.5727,4.5732,4.6087,4.6092,4.6098,0,0,0,0,0,0,4.5326,4.535,4.5546,4.5454,4.5477,4.5504,4.5561,4.5563,4.5596,4.5627,4.5631,4.5592,4.5662,4.5679,4.579,4.5858,4.5731,4.5738,4.6081,4.6089,4.6095,4.6184,0,0,0,0,0,0,4.5319,4.5348,4.5403,4.5455,4.5483,4.5646,4.5565,4.5568,4.5612,4.5604,4.5656,4.566,4.566,4.5778,4.5798,4.5867,4.5745,4.6075,4.6084,4.6093,4.6175,4.6194,4.6209,0,0,0,0,0,4.5309,4.5421,4.5406,4.543,4.5552,4.565,4.5665,4.5665,4.5617,4.5671,4.5691,4.5659,4.5847,4.579,4.5812,4.5884,4.6071,4.6082,4.6092,4.6168,4.619,4.6209,0,0,0,0,0,0,4.5373,4.5428,4.5411,4.5545,4.5594,4.5641,4.5709,4.5689,4.575,4.574,4.5734,4.5746,4.5861,4.5883,4.5818,4.6019,4.5951,4.5967,4.6001,4.6022,4.6039,4.6031,4.5752,0,0,0,0,0,4.5403,4.5482,4.5524,4.5638,4.5663,4.5682,4.5725,4.5721,4.577,4.5789,4.5817,4.5863,4.5933,4.5979,4.6044,4.6178,4.6188,4.6239,4.6255,4.6269,4.6283,4.6355,4.6378,4.6133,4.6132,4.6132,0,0,4.5465,4.5505,4.5554,4.5652,4.5689,4.5768,4.57,4.5786,4.5844,4.5801,4.5909,4.5931,4.5982,4.6105,4.6161,4.6127,4.6353,4.6283,4.6293,4.63,4.6368,4.6391,4.6412,4.614,4.6138,4.6137,0,0,4.5619,4.5657,4.5757,4.5796,4.5855,4.5866,4.589,4.5941,4.5955,4.6064,4.6034,4.61,4.622,4.6258,4.6293,4.6461,4.6434,4.6482,4.6571,4.6641,4.666,4.6677,4.6737,4.6759,4.6496,4.6496,4.6496,0,4.5687,4.5809,4.5809,4.5899,4.5942,4.591,4.6009,4.6046,4.6122,4.6151,4.6113,4.6263,4.6295,4.6427,4.6468,4.6497,4.6523,4.6477,4.6658,4.6675,4.6691,4.6748,4.6771,4.6502,4.6501,4.65,4.65,0,4.589,4.5974,4.6047,4.6125,4.6175,4.6269,4.6281,4.6332,4.6323,4.6338,4.6448,4.6485,4.6558,4.6589,4.6579,4.6719,4.6697,4.6659,4.659,4.672,4.6773,4.6795,4.651,4.6508,4.6506,4.6505,0,0,4.6087,4.6166,4.6192,4.6227,4.629,4.6353,4.6444,4.6518,4.6562,4.6614,4.669,4.6792,4.6758,4.6797,4.6792,4.6854,4.6985,4.6808,4.6809,4.6839,4.714,4.7169,4.7194,4.6967,4.6971,4.6974,4.7136,0,4.6246,4.641,4.6413,4.6562,4.6639,4.661,4.6689,4.6734,4.675,4.6815,4.6831,4.6905,4.6854,4.6877,4.6937,4.6956,4.7045,4.6944,4.7034,4.7038,4.7024,4.7222,4.7253,4.7404,4.7157,4.716,4.7163,0,4.6453,4.6516,4.6674,4.6726,4.6759,4.683,4.6899,4.6962,4.7012,4.7019,4.7064,4.7049,4.7139,4.7068,4.7191,4.7123,4.7159,4.7174,4.718,4.7188,4.7108,4.7236,4.7452,4.7475,4.7196,4.7193,4.7191,0,4.6581,4.6705,4.6816,4.6847,4.691,4.6961,4.6989,4.7035,4.708,4.7138,4.7167,4.7233,4.727,4.7321,4.7324,4.7272,4.7448,4.7376,4.7454,4.7455,4.7493,4.7491,4.7718,4.7516,4.7516,4.7516,4.7515,0,4.6758,4.6856,4.6875,4.6943,4.7051,4.7052,4.7158,4.7181,4.7222,4.7292,4.7269,4.7335,4.7335,4.74,4.7402,4.7504,4.752,4.7527,4.7526,4.7529,4.7529,4.7553,4.7543,4.7522,4.752,4.7519,4.7518,0,4.692,4.6937,4.7056,4.7107,4.7122,4.7199,4.7241,4.7305,4.7319,4.7408,4.7428,4.745,4.7526,4.7534,4.7622,4.7623,4.7746,4.7734,4.773,4.7729,4.7806,4.7799,4.8058,4.8091,4.7868,4.787,4.7872,0,4.7032,4.7107,4.7167,4.7214,4.7246,4.7322,4.7368,4.7371,4.742,4.7482,4.7538,4.7613,4.7673,4.7796,4.7817,4.7884,4.7873,4.7959,4.7883,4.7884,4.7875,4.7871,4.7878,4.7974,4.7977,4.7979,4.798,0,4.7229,4.7234,4.7304,4.7377,4.7434,4.749,4.7543,4.7582,4.7591,4.7646,4.7726,4.7773,4.7864,4.7938,4.8004,4.8029,4.8006,4.8004,4.8026,4.803,4.8025,4.8029,4.7771,4.7998,4.7996,4.7995,4.7994,4.7993,4.7369,4.7435,4.7488,4.7566,4.7607,4.7657,4.772,4.7744,4.7811,4.7889,4.7885,4.7973,4.8019,4.8106,4.8136,4.8203,4.8173,4.8205,4.8213,4.8221,4.8229,4.8015,4.8214,4.8214,4.8213,4.8213,4.8212,0,4.7565,4.7598,4.7671,4.7747,4.7808,4.7785,4.7842,4.7894,4.7972,4.8019,4.808,4.8171,4.8243,4.8271,4.834,4.8388,4.8379,4.8406,4.8403,4.8409,4.8251,4.8225,4.8412,4.8412,4.8412,4.8412,4.8412,4.8412,4.7674,4.7785,4.7796,4.7925,4.7957,4.8046,4.808,4.8126,4.8164,4.8268,4.8329,4.8348,4.8386,4.8459,4.8522,4.8528,4.8555,4.8587,4.8588,4.844,4.842,4.8401,4.8377,4.8592,4.8593,4.874,4.8742,4.8743]}]]